Weather History for KITH - March, 2014

Change the Weather History Date:

Wednesday, March 5, 2014

  Actual Average Record
Temperature  
Mean Temperature 11 °F -  
Max Temperature 20 °F 38 °F 66 °F (1974)
Min Temperature -1 °F 22 °F -10 °F (1944)
Degree Days  
Heating Degree Days 54    
Moisture  
Dew Point 9 °F    
Average Humidity 76    
Maximum Humidity 88    
Minimum Humidity 62    
Precipitation  
Precipitation 0.00 in - - ()
Sea Level Pressure  
Sea Level Pressure 30.36 in    
Wind  
Wind Speed 4 mph (NNW)    
Max Wind Speed 13 mph    
Max Gust Speed -    
Visibility 8 miles    
Events Snow    
Averages and records for this station are not official NWS values.
T = Trace of Precipitation, MM = Missing Value Source: NWS Daily Summary

Daily Weather History Graph

Daily Weather History Graph

Search for Another Location

Airport or City:

Trip Planner

Search our weather history database for the weather conditions in past years. The results will help you decide how hot, cold, wet, or windy it might be!

Date:

Astronomy

Mar. 05, 2014 Rise Set
Actual Time 6:34 AM EST 6:00 PM EST
Civil Twilight 6:06 AM EST 6:28 PM EST
Nautical Twilight 5:34 AM EST 7:01 PM EST
Astronomical Twilight 5:01 AM EST 7:33 PM EST
Moon 8:52 AM EST (3/5) 11:13 PM EST (3/5)
Length of Visible Light 12h 21m
Length of Day
11h 25m
Waxing Crescent, 23% of the Moon is Illuminated
Mar 5
Waxing Crescent
Mar 8
First Quarter
Mar 16
Full
Mar 23
Last Quarter
Mar 30
New

Hourly Weather History & Observations

Time (EST) Temp. Windchill Dew Point Humidity Pressure Visibility Wind Dir Wind Speed Gust Speed Precip Events Conditions
12:56 AM 16.2 °F - 10.0 °F 77% 30.25 in 10.0 mi Calm Calm - N/A   Overcast
1:56 AM 16.2 °F - 11.1 °F 81% 30.25 in 10.0 mi Calm Calm - N/A   Overcast
2:56 AM 16.2 °F - 11.1 °F 81% 30.23 in 10.0 mi Calm Calm - N/A   Overcast
3:56 AM 17.1 °F - 11.1 °F 77% 30.23 in 10.0 mi Calm Calm - N/A   Overcast
4:56 AM 17.1 °F 11.7 °F 11.1 °F 77% 30.24 in 10.0 mi NNW 3.5 mph - N/A   Overcast
5:56 AM 16.2 °F 10.6 °F 13.1 °F 88% 30.26 in 10.0 mi NNW 3.5 mph - N/A   Overcast
6:24 AM 15.8 °F - 12.2 °F 86% 30.21 in 7.0 mi Calm Calm - N/A   Overcast
6:56 AM 16.2 °F - 13.1 °F 88% 30.28 in 10.0 mi Calm Calm - N/A   Overcast
7:56 AM 17.1 °F 10.0 °F 12.0 °F 81% 30.30 in 7.0 mi NNW 4.6 mph - 0.00 in Snow Light Snow Showers
8:13 AM 17.6 °F 9.3 °F 12.2 °F 79% 30.24 in 4.0 mi WNW 5.8 mph - 0.00 in Snow Light Snow Showers
8:39 AM 17.6 °F 7.3 °F 12.2 °F 79% 30.26 in 7.0 mi NW 8.1 mph - 0.00 in   Overcast
8:56 AM 18.1 °F 7.9 °F 12.0 °F 77% 30.33 in 6.0 mi NNW 8.1 mph - 0.00 in Snow Light Snow Showers
9:56 AM 18.1 °F 7.9 °F 12.0 °F 77% 30.34 in 5.0 mi NNW 8.1 mph - 0.00 in Snow Light Snow Showers
10:56 AM 19.0 °F 7.5 °F 11.1 °F 71% 30.34 in 10.0 mi NNW 10.4 mph - 0.00 in   Overcast
11:56 AM 20.1 °F 9.5 °F 12.0 °F 71% 30.35 in 6.0 mi NNW 9.2 mph - 0.00 in Snow Light Snow Showers
12:56 PM 19.0 °F 9.0 °F 11.1 °F 71% 30.36 in 5.0 mi North 8.1 mph - 0.00 in Snow Light Snow
1:10 PM 19.4 °F 9.5 °F 12.2 °F 74% 30.30 in 2.0 mi NNW 8.1 mph - 0.00 in Snow Light Snow
1:56 PM 20.1 °F 8.1 °F 11.1 °F 68% 30.38 in 3.0 mi NW 11.5 mph - 0.00 in   Mostly Cloudy
2:25 PM 19.4 °F 6.6 °F 8.6 °F 63% 30.32 in 10.0 mi NNW 12.7 mph - 0.00 in   Mostly Cloudy
2:56 PM 19.0 °F 6.8 °F 10.0 °F 68% 30.40 in 10.0 mi North 11.5 mph - 0.00 in   Mostly Cloudy
3:56 PM 18.1 °F 5.0 °F 7.2 °F 62% 30.43 in 10.0 mi NNW 12.7 mph - N/A   Mostly Cloudy
4:56 PM 16.2 °F 4.7 °F 8.1 °F 70% 30.45 in 10.0 mi NNW 9.2 mph - N/A   Mostly Cloudy
5:56 PM 15.1 °F 2.5 °F 9.1 °F 77% 30.48 in 8.0 mi North 10.4 mph - 0.00 in Snow Light Snow
6:56 PM 12.0 °F 2.7 °F 8.1 °F 84% 30.51 in 10.0 mi NNW 5.8 mph - 0.00 in Snow Light Snow
7:56 PM 10.0 °F 3.6 °F 6.1 °F 84% 30.53 in 10.0 mi North 3.5 mph - 0.00 in   Partly Cloudy
8:56 PM 10.0 °F 0.4 °F 3.0 °F 73% 30.55 in 10.0 mi North 5.8 mph - N/A   Clear
9:56 PM 9.1 °F 2.6 °F 1.0 °F 70% 30.57 in 10.0 mi East 3.5 mph - N/A   Clear
10:56 PM 2.1 °F - -2.9 °F 79% 30.59 in 10.0 mi Calm Calm - N/A   Clear
11:56 PM -1.8 °F - -6.0 °F 83% 30.59 in 10.0 mi Calm Calm - N/A   Clear